Total_Precipitation_Accumulation
0.00 0.00 0.01 0.01 0.01 0.01 0.02 0.04 0.11 0.17 0.11 0.10 0.21 0.39 0.45 0.46 0.54 0.68 0.79 0.68 0.59 0.60 0.72 0.88 1.16 1.46 1.83 2.46 3.12 3.29 2.85 2.40 1.99 1.71 1.45 1.20 0.99 0.93 0.88 0.74 0.69 0.69 0.71 0.74
0.01 0.02 0.02 0.02 0.02 0.04 0.05 0.07 0.12 0.15 0.10 0.12 0.18 0.37 0.55 0.61 0.74 0.75 0.79 0.76 0.65 0.75 0.98 1.21 1.54 1.72 1.96 2.35 2.77 2.73 2.27 1.82 1.34 1.04 0.93 0.82 0.70 0.61 0.51 0.48 0.52 0.49 0.55 0.63
0.01 0.03 0.02 0.02 0.02 0.05 0.07 0.08 0.12 0.14 0.07 0.11 0.18 0.42 0.68 0.75 0.64 0.54 0.46 0.52 0.49 0.58 0.93 1.38 1.84 2.03 2.11 2.10 1.97 1.80 1.37 0.89 0.66 0.50 0.48 0.43 0.41 0.41 0.33 0.30 0.33 0.32 0.35 0.39
0.01 0.02 0.01 0.02 0.03 0.04 0.07 0.05 0.04 0.04 0.06 0.19 0.26 0.66 0.85 0.73 0.59 0.50 0.38 0.34 0.34 0.46 0.83 1.39 1.68 1.68 1.66 1.53 1.18 0.89 0.70 0.46 0.33 0.30 0.33 0.34 0.31 0.31 0.27 0.24 0.25 0.24 0.24 0.27
0.02 0.02 0.02 0.02 0.03 0.03 0.05 0.04 0.04 0.06 0.09 0.20 0.34 0.60 0.83 0.68 0.62 0.47 0.34 0.29 0.32 0.40 0.58 0.82 0.90 0.95 0.95 0.84 0.68 0.55 0.49 0.40 0.38 0.37 0.39 0.40 0.29 0.24 0.22 0.21 0.20 0.21 0.24 0.26
0.04 0.04 0.03 0.02 0.02 0.03 0.03 0.05 0.10 0.20 0.27 0.49 0.47 0.55 0.81 0.73 0.56 0.34 0.24 0.25 0.22 0.27 0.38 0.50 0.48 0.45 0.43 0.35 0.36 0.39 0.49 0.53 0.46 0.36 0.32 0.32 0.28 0.24 0.21 0.18 0.19 0.20 0.22 0.26
0.10 0.08 0.08 0.06 0.05 0.05 0.05 0.08 0.23 0.50 0.79 0.80 0.44 0.48 0.75 0.51 0.32 0.22 0.16 0.15 0.20 0.31 0.37 0.41 0.44 0.42 0.32 0.25 0.27 0.29 0.29 0.32 0.32 0.29 0.27 0.27 0.27 0.25 0.23 0.20 0.16 0.17 0.19 0.23
0.14 0.15 0.11 0.07 0.05 0.05 0.06 0.08 0.15 0.27 0.31 0.36 0.36 0.71 0.81 0.36 0.24 0.15 0.10 0.10 0.15 0.22 0.26 0.27 0.27 0.25 0.19 0.15 0.11 0.10 0.12 0.13 0.14 0.14 0.16 0.18 0.22 0.20 0.20 0.23 0.19 0.17 0.20 0.24
0.05 0.05 0.04 0.04 0.05 0.05 0.05 0.05 0.06 0.06 0.11 0.23 0.41 0.60 0.49 0.27 0.18 0.10 0.06 0.06 0.08 0.09 0.10 0.11 0.09 0.07 0.07 0.07 0.05 0.05 0.05 0.06 0.06 0.07 0.09 0.12 0.16 0.18 0.18 0.20 0.19 0.19 0.25 0.26
0.02 0.02 0.02 0.03 0.04 0.05 0.05 0.05 0.04 0.04 0.10 0.18 0.32 0.54 0.54 0.29 0.18 0.08 0.04 0.04 0.04 0.03 0.03 0.04 0.04 0.03 0.03 0.02 0.02 0.02 0.03 0.03 0.03 0.04 0.05 0.07 0.09 0.13 0.15 0.15 0.18 0.21 0.21 0.22
0.01 0.01 0.01 0.03 0.04 0.05 0.04 0.04 0.04 0.04 0.05 0.09 0.20 0.32 0.24 0.13 0.06 0.03 0.02 0.01 0.01 0.01 0.01 0.01 0.02 0.01 0.01 0.01 0.01 0.02 0.02 0.02 0.02 0.02 0.03 0.04 0.06 0.08 0.11 0.14 0.16 0.19 0.19 0.21
0.01 0.00 0.01 0.03 0.05 0.04 0.03 0.03 0.03 0.03 0.04 0.06 0.10 0.14 0.10 0.07 0.03 0.02 0.01 0.00 0.00 0.00 0.00 0.00 0.00 0.00 0.01 0.01 0.01 0.01 0.02 0.02 0.02 0.02 0.02 0.03 0.05 0.06 0.07 0.09 0.13 0.16 0.19 0.18
0.00 0.00 0.01 0.09 0.14 0.08 0.03 0.02 0.03 0.03 0.04 0.04 0.12 0.19 0.08 0.04 0.02 0.01 0.01 0.00 0.00 0.00 0.00 0.00 0.00 0.00 0.00 0.01 0.01 0.01 0.01 0.01 0.01 0.01 0.02 0.02 0.02 0.04 0.05 0.07 0.10 0.13 0.17 0.18
0.01 0.01 0.01 0.08 0.12 0.07 0.04 0.04 0.04 0.03 0.04 0.04 0.10 0.17 0.07 0.03 0.01 0.01 0.00 0.00 0.00 0.00 0.00 0.00 0.00 0.00 0.00 0.00 0.00 0.00 0.00 0.00 0.01 0.01 0.02 0.02 0.02 0.03 0.05 0.06 0.09 0.12 0.15 0.17
0.02 0.01 0.00 0.00 0.02 0.03 0.04 0.05 0.05 0.03 0.03 0.05 0.05 0.06 0.05 0.02 0.01 0.01 0.01 0.00 0.00 0.00 0.00 0.00 0.00 0.00 0.00 0.00 0.00 0.01 0.01 0.01 0.02 0.03 0.04 0.04 0.04 0.05 0.05 0.06 0.09 0.11 0.12 0.13
0.02 0.01 0.00 0.00 0.01 0.03 0.04 0.07 0.05 0.02 0.02 0.01 0.01 0.02 0.03 0.04 0.03 0.03 0.02 0.02 0.02 0.02 0.02 0.02 0.02 0.02 0.03 0.03 0.03 0.03 0.04 0.04 0.05 0.08 0.10 0.09 0.09 0.10 0.09 0.10 0.11 0.12 0.14 0.17
0.02 0.02 0.01 0.00 0.02 0.02 0.06 0.06 0.04 0.02 0.02 0.02 0.03 0.04 0.05 0.06 0.06 0.08 0.10 0.11 0.09 0.09 0.08 0.07 0.07 0.05 0.04 0.03 0.03 0.03 0.03 0.03 0.04 0.07 0.12 0.13 0.13 0.13 0.10 0.10 0.12 0.14 0.18 0.22
0.02 0.02 0.02 0.01 0.02 0.05 0.05 0.04 0.03 0.03 0.03 0.05 0.09 0.12 0.14 0.17 0.18 0.21 0.26 0.23 0.16 0.10 0.07 0.05 0.03 0.01 0.01 0.01 0.01 0.02 0.02 0.03 0.03 0.05 0.12 0.17 0.19 0.17 0.15 0.17 0.20 0.23 0.26 0.29
0.04 0.03 0.03 0.02 0.03 0.04 0.03 0.05 0.05 0.06 0.08 0.12 0.20 0.27 0.30 0.30 0.29 0.25 0.18 0.13 0.08 0.04 0.02 0.01 0.01 0.01 0.01 0.01 0.02 0.03 0.04 0.04 0.06 0.09 0.13 0.19 0.25 0.26 0.26 0.27 0.31 0.35 0.38 0.37
0.06 0.06 0.04 0.03 0.05 0.07 0.07 0.10 0.12 0.12 0.21 0.27 0.32 0.31 0.23 0.16 0.15 0.11 0.06 0.03 0.02 0.01 0.01 0.01 0.01 0.01 0.02 0.03 0.04 0.05 0.07 0.09 0.12 0.14 0.17 0.23 0.31 0.36 0.35 0.37 0.41 0.43 0.47 0.46
0.11 0.11 0.08 0.06 0.07 0.08 0.12 0.15 0.19 0.31 0.39 0.36 0.33 0.25 0.18 0.15 0.13 0.09 0.05 0.03 0.02 0.01 0.01 0.01 0.01 0.03 0.06 0.08 0.12 0.16 0.19 0.21 0.21 0.23 0.25 0.30 0.36 0.43 0.42 0.44 0.47 0.50 0.51 0.52
0.14 0.17 0.16 0.16 0.22 0.22 0.18 0.20 0.31 0.37 0.32 0.28 0.23 0.18 0.13 0.10 0.07 0.05 0.05 0.04 0.03 0.02 0.02 0.02 0.03 0.03 0.06 0.11 0.18 0.25 0.26 0.27 0.29 0.32 0.33 0.36 0.43 0.44 0.43 0.55 0.61 0.66 0.68 0.65
0.09 0.11 0.20 0.27 0.28 0.24 0.23 0.22 0.23 0.25 0.23 0.19 0.17 0.14 0.10 0.07 0.07 0.06 0.04 0.04 0.03 0.02 0.02 0.02 0.03 0.04 0.06 0.11 0.17 0.23 0.25 0.27 0.28 0.32 0.34 0.39 0.48 0.55 0.58 0.65 0.69 0.78 0.83 0.80
0.10 0.07 0.10 0.20 0.23 0.22 0.21 0.21 0.17 0.14 0.11 0.08 0.07 0.08 0.08 0.09 0.10 0.11 0.06 0.04 0.03 0.02 0.02 0.03 0.05 0.08 0.09 0.10 0.14 0.18 0.25 0.32 0.36 0.37 0.39 0.43 0.50 0.56 0.68 0.78 0.78 0.80 0.84 0.87
0.08 0.06 0.08 0.17 0.22 0.26 0.25 0.21 0.14 0.09 0.08 0.06 0.04 0.04 0.04 0.04 0.04 0.04 0.04 0.03 0.02 0.02 0.03 0.06 0.10 0.13 0.12 0.12 0.13 0.15 0.22 0.34 0.42 0.42 0.41 0.45 0.50 0.57 0.70 0.83 0.86 0.77 0.78 0.81
0.05 0.06 0.07 0.12 0.16 0.21 0.22 0.16 0.08 0.05 0.05 0.07 0.05 0.03 0.02 0.01 0.01 0.01 0.01 0.01 0.02 0.03 0.07 0.11 0.14 0.15 0.15 0.15 0.16 0.17 0.23 0.36 0.46 0.46 0.43 0.46 0.50 0.58 0.67 0.80 0.86 0.71 0.58 0.56